Location: Franzen
(48.6167°N, 15.3833°E)
Time: 14:01:58
(UTC+00:00)

FALCON 9 DEB - Pass Details

Date: 22 April 2021
Orbit: 364 x 381 km, 53.0° (Epoch: 16 May)

Event Time Altitude Azimuth Distance (km) Brightness Sun altitude
Rises 19:18:55 0° 228° (SW) 2,192 6.9 -12.3°
Reaches altitude 10° 19:20:58 10° 222° (SW) 1,349 5.7 -12.6°
Maximum altitude 19:23:52 46° 147° (SSE) 498 3.0 -12.9°
Enters shadow 19:26:01 16° 77° (ENE) 1,051 4.7 -13.2°
